SCP
0 0 0 0 0 0 0 0 0 0 0 0 0 0 0 0 0 0 0 0 0 0 0 1 1 1 1 1 1 1 1 1 1 1 1 1 0 0 0 0 0 0 0 0
0 0 0 0 0 0 0 0 0 0 0 0 0 0 0 0 0 0 0 0 0 0 1 1 1 1 1 1 1 1 1 1 1 1 1 0 0 0 0 0 0 0 0 0
0 0 0 0 0 0 0 0 0 0 0 0 0 0 0 0 0 0 0 0 0 0 1 1 1 1 1 1 1 1 1 1 1 1 0 0 0 0 0 0 0 0 0 0
0 0 0 0 0 0 0 0 0 0 0 0 0 0 0 0 0 0 0 0 0 0 0 1 1 1 1 1 1 1 1 1 1 1 1 0 0 0 0 0 0 0 0 0
0 0 0 0 0 0 0 0 0 0 0 0 0 0 0 0 0 0 0 0 0 0 0 0 1 1 1 1 1 1 1 1 1 1 1 0 0 0 0 0 0 0 0 0
0 0 0 0 0 0 0 0 0 0 0 0 0 0 0 0 0 0 0 0 0 0 0 0 0 1 1 1 1 1 1 1 1 1 1 1 0 0 0 0 0 0 0 0
0 0 0 0 0 0 0 0 0 0 0 0 0 0 0 0 0 0 0 0 0 0 0 0 0 1 1 1 1 1 1 1 1 1 1 1 1 1 0 0 0 0 0 0
0 0 0 0 0 0 0 0 0 0 0 0 0 0 0 0 0 0 0 0 0 0 0 0 0 1 1 1 1 1 1 1 1 1 1 1 1 1 1 0 0 0 0 0
0 0 0 0 0 0 0 0 0 0 0 0 0 0 0 0 0 0 0 0 0 0 0 0 0 1 1 1 1 1 1 1 1 1 1 1 1 1 1 1 0 0 0 0
0 0 0 0 0 0 0 0 0 0 0 0 0 0 0 0 0 0 0 0 0 0 0 0 0 0 1 1 1 1 1 1 1 1 1 1 1 1 1 1 1 0 0 0
0 0 0 0 0 0 0 0 0 0 0 0 0 0 0 0 0 0 0 0 0 0 0 0 0 0 1 1 1 1 1 1 1 1 1 1 1 1 1 1 1 1 0 0
0 0 0 0 0 0 0 0 0 0 0 0 0 0 0 0 0 0 0 0 0 0 0 0 0 0 1 1 1 1 1 1 1 1 1 1 1 1 1 1 1 1 1 0
0 0 0 0 0 0 0 0 0 0 0 0 0 0 0 0 0 0 0 0 0 0 0 0 0 0 1 1 1 1 1 1 1 1 1 1 1 1 1 1 1 1 1 1
0 0 0 0 0 0 0 0 0 0 0 0 0 0 0 0 0 0 0 0 0 0 0 0 0 1 1 1 1 1 1 1 1 1 1 1 1 1 1 1 1 1 1 1
0 0 0 0 0 0 0 0 0 0 0 0 0 0 0 0 0 0 0 0 0 0 0 0 1 1 1 1 1 1 1 1 1 1 1 1 1 1 1 1 1 1 1 1
0 0 0 0 0 0 0 0 0 0 0 0 0 0 0 0 0 0 0 0 0 0 0 0 0 1 1 1 1 1 1 1 1 1 1 1 1 1 1 1 1 1 1 1
0 0 0 0 0 0 0 0 0 0 0 0 0 0 0 0 0 0 0 0 0 0 0 0 0 1 1 1 1 1 1 1 1 1 1 1 1 1 1 1 1 1 1 1
0 0 0 0 0 0 0 0 0 0 0 0 0 0 0 0 0 0 0 0 0 0 0 0 0 1 1 1 1 1 1 1 1 1 1 1 1 1 1 1 1 1 1 1
0 0 0 0 0 0 0 0 0 0 0 0 0 0 0 0 0 0 0 0 0 0 0 0 0 0 1 1 1 1 1 1 1 1 1 1 1 1 1 1 1 1 1 1
0 0 0 0 0 0 0 0 0 0 0 0 0 0 0 0 0 0 0 0 0 0 0 0 0 0 0 1 1 1 1 1 1 1 1 1 1 1 1 1 1 1 1 1
0 0 0 0 0 0 0 0 0 0 0 0 0 0 0 0 0 0 0 0 0 0 0 0 0 0 0 0 0 0 0 0 0 1 1 1 1 1 1 1 1 1 1 1
0 0 0 0 0 0 0 0 0 0 0 0 0 0 0 0 0 0 0 0 0 0 0 0 0 0 0 0 0 0 0 0 0 1 1 1 1 0 0 0 0 0 0 0
0 0 0 0 0 0 0 0 0 0 0 0 0 0 0 0 0 0 0 0 0 0 0 0 0 0 0 0 0 0 0 0 1 1 1 1 1 0 0 0 0 0 0 0
0 0 0 0 0 0 0 0 0 0 0 0 0 0 0 0 0 0 0 0 0 0 0 0 0 0 0 0 0 0 0 0 1 1 1 1 1 0 0 0 0 0 0 0
0 0 0 0 0 0 0 0 0 0 0 0 0 0 0 0 0 0 0 0 0 0 0 0 0 0 0 0 0 0 0 0 1 1 1 1 1 0 0 0 0 0 0 0
0 0 0 0 0 0 0 0 0 0 0 0 0 0 0 0 0 0 0 0 0 0 0 0 0 0 0 0 0 0 0 0 1 1 1 1 1 0 0 0 0 0 0 0
Wind_Speed
14 14 16 16 16 8 9 11 10 7 6 9 11 10 7 9 11 12 12 13 14 14 14 14 14 14 14 13 13 13 13 12 9 8 7 7 6 6 5 5 6 6 6 6
13 17 16 12 11 10 11 12 10 7 5 7 8 9 7 9 12 12 13 13 14 14 14 15 15 14 15 15 14 13 13 13 12 8 7 5 5 5 5 4 5 7 7 6
18 12 14 13 14 14 14 13 10 7 6 7 7 10 9 8 10 11 12 12 13 14 15 16 16 16 16 15 15 13 14 13 13 11 8 6 5 4 6 6 6 7 7 7
15 10 14 16 16 15 13 11 8 8 9 7 7 8 8 8 10 12 12 13 13 14 14 15 16 16 16 15 14 14 14 14 13 12 10 11 8 8 7 6 6 7 7 7
13 14 16 17 16 15 10 7 9 9 10 8 9 9 5 8 9 10 12 13 13 13 14 15 16 16 16 15 14 14 14 14 14 13 12 12 10 7 6 6 6 6 6 7
12 12 15 15 13 13 8 8 7 9 10 12 9 9 6 6 6 7 9 10 11 12 13 14 14 15 14 14 14 14 14 14 14 14 13 13 11 10 9 8 7 7 6 6
14 14 14 13 14 14 13 12 9 10 10 9 6 8 5 1 3 3 5 8 9 11 12 13 14 15 15 15 15 14 15 14 14 15 14 13 12 11 11 9 8 8 6 6
16 17 16 14 15 14 16 16 10 8 9 6 7 8 2 2 2 3 3 5 7 9 10 11 13 13 14 15 15 15 15 14 14 14 13 12 12 9 8 9 8 8 6 6
13 13 15 14 14 14 17 16 11 9 7 7 7 5 5 5 6 5 5 6 7 8 10 10 11 13 13 14 15 15 14 14 14 14 13 12 12 10 9 9 9 7 6 6
8 11 14 14 13 12 13 13 9 10 8 9 7 8 5 7 7 6 6 6 6 7 8 9 10 11 12 13 13 14 13 14 13 13 12 10 11 11 9 9 9 8 8 7
10 10 13 16 17 17 13 14 12 10 9 8 6 4 3 5 5 5 5 5 6 7 8 8 9 10 11 12 13 13 13 13 12 13 12 11 11 11 10 9 9 9 8 8
12 10 11 14 12 12 15 14 14 11 9 9 8 2 6 4 4 3 4 5 6 6 7 8 9 10 10 11 12 12 12 13 13 12 12 12 11 11 11 10 9 9 9 9
11 9 11 13 13 13 16 15 15 12 9 9 9 3 8 5 4 3 3 5 6 7 7 8 9 9 10 10 10 11 12 12 12 12 12 12 12 12 11 10 10 10 9 9
10 11 12 13 11 14 16 16 16 15 11 10 11 5 5 5 4 4 3 5 6 7 7 8 9 9 9 9 9 10 11 11 11 12 12 12 12 12 11 10 10 10 9 9
10 13 13 11 9 13 14 16 17 17 15 12 9 8 4 3 3 3 3 4 5 7 7 8 8 8 9 9 9 9 10 10 11 11 11 11 11 11 10 10 10 9 9 9
8 10 12 12 12 13 13 15 16 16 14 12 9 6 2 3 3 4 4 4 5 6 6 7 8 8 9 9 9 9 9 10 10 11 11 10 10 11 10 10 10 9 9 9
8 8 11 12 13 13 15 12 13 13 11 11 10 5 5 4 3 3 3 3 4 5 5 6 7 7 8 8 8 9 9 9 9 10 10 10 11 10 10 10 10 9 9 9
7 9 8 9 11 15 7 5 7 8 7 6 4 4 5 4 4 4 3 3 3 3 3 4 5 6 7 8 8 8 9 9 9 9 9 9 9 9 9 9 9 9 8 8
8 8 8 8 12 10 7 6 7 8 6 4 5 5 6 6 6 6 5 3 3 2 2 2 4 6 6 7 8 8 9 9 9 9 9 9 9 9 9 9 8 8 8 7
8 8 8 9 11 10 6 6 4 6 7 5 5 6 7 6 5 4 4 3 3 2 3 3 4 6 6 6 7 8 8 8 8 8 8 8 8 8 8 8 8 7 7 7
10 9 11 10 9 4 4 5 6 9 4 5 5 4 4 3 4 5 4 4 3 3 4 4 4 5 5 6 7 7 7 7 7 7 7 8 8 7 7 7 7 7 7 7
7 8 9 8 9 4 4 4 3 4 6 6 5 5 5 7 7 6 5 4 4 4 4 4 4 5 4 5 5 6 6 6 6 7 7 7 7 7 6 7 7 7 7 7
2 2 1 0 2 6 4 4 5 5 6 6 6 6 6 7 6 6 5 5 5 5 5 4 4 4 3 3 4 5 4 5 6 7 7 7 7 6 6 6 6 6 6 6
3 1 2 3 5 5 5 6 6 6 7 7 7 7 6 7 7 6 5 5 5 5 4 3 4 4 3 2 2 2 3 4 6 7 6 6 6 6 5 4 4 4 4 5
1 2 3 4 5 5 5 6 7 8 8 8 8 7 7 7 7 6 5 5 5 4 4 4 4 3 3 2 1 1 2 4 6 6 6 6 6 5 5 4 2 1 2 1
1 0 1 2 3 3 5 5 6 8 8 8 8 8 7 7 7 6 5 5 5 5 4 4 4 4 3 2 2 1 1 3 5 5 5 5 5 5 5 5 5 8 6 8
Wind_Direction
186 201 204 200 212 228 208 209 202 187 172 216 226 232 209 194 209 208 198 193 194 194 187 182 184 186 183 181 182 184 184 179 178 181 185 188 192 192 191 191 181 186 191 188
185 212 207 202 206 219 214 210 203 177 178 230 235 237 223 204 214 213 205 200 198 190 184 183 184 186 186 184 186 186 186 184 185 185 189 191 192 193 190 192 182 193 192 194
200 198 196 200 201 209 214 217 208 193 184 219 240 231 210 200 212 215 213 208 203 196 189 187 187 190 189 188 188 190 188 187 189 185 183 179 177 192 188 189 187 194 195 199
216 194 190 201 206 210 211 215 223 213 219 209 226 246 194 192 202 209 211 210 207 200 195 191 190 192 192 190 189 192 188 188 187 186 190 191 194 199 196 190 182 185 192 196
205 198 194 204 206 210 214 196 217 224 231 241 215 254 211 184 211 209 208 210 208 202 198 195 193 192 193 189 188 188 186 187 188 191 193 200 204 202 193 188 181 186 187 195
209 197 205 207 203 205 194 188 198 220 232 234 226 243 241 191 216 209 196 202 205 201 198 197 194 190 190 188 188 187 187 189 189 193 196 201 204 202 195 190 187 192 189 193
205 198 202 204 193 189 199 199 197 206 216 226 197 239 249 181 203 224 201 193 194 195 194 192 190 190 188 188 189 189 188 190 191 194 197 200 202 202 200 197 197 200 195 192
196 195 193 198 202 191 205 213 219 217 215 202 187 233 220 140 172 199 200 185 184 188 190 190 189 188 188 187 188 190 190 191 191 194 196 198 200 203 201 200 199 198 201 192
200 195 184 196 205 208 202 217 234 253 247 235 201 210 209 183 193 189 180 176 179 182 184 188 187 186 186 186 188 191 190 191 190 192 193 196 199 203 200 193 200 198 195 187
211 200 183 185 196 211 217 209 216 237 235 236 216 217 210 180 186 181 182 180 173 174 179 182 183 183 183 184 186 189 191 192 190 190 193 193 196 197 195 197 197 195 193 192
218 213 184 188 203 195 198 205 217 226 240 248 232 206 139 170 173 177 178 174 172 175 173 175 179 178 181 181 183 187 190 189 188 191 192 192 191 191 192 195 196 193 191 190
214 222 201 195 199 215 206 209 211 218 220 245 264 168 115 150 160 169 172 168 167 172 167 166 169 174 180 182 182 185 188 189 188 187 187 188 188 189 191 193 196 192 191 191
201 221 202 190 193 205 212 211 216 225 229 233 244 185 130 160 174 164 167 160 162 169 164 164 166 170 176 180 183 184 185 186 185 184 186 186 188 188 191 191 192 191 190 188
211 221 230 215 199 191 204 208 213 220 227 229 238 230 174 188 189 162 155 161 168 169 168 169 171 174 176 177 180 182 184 181 182 184 186 186 188 188 188 188 187 187 189 188
215 220 227 238 217 203 206 207 209 219 233 243 236 235 212 184 186 153 153 161 170 171 174 176 177 176 178 177 179 180 181 179 181 184 185 186 187 187 186 184 185 187 192 193
215 228 221 222 218 216 214 211 212 221 229 240 243 233 135 119 137 145 152 158 167 168 173 177 179 179 181 180 180 176 179 178 180 185 188 184 185 185 184 183 183 185 190 193
203 216 219 216 207 213 219 214 212 215 224 234 237 221 151 157 139 129 134 144 151 156 164 174 178 179 178 177 177 176 174 175 180 184 184 182 184 184 183 182 182 186 188 191
218 217 219 212 199 217 207 205 219 208 213 229 220 171 165 139 109 92 98 116 122 136 152 164 170 170 169 168 169 171 170 173 180 182 181 178 184 184 181 181 183 186 189 193
218 221 220 213 210 210 182 179 200 203 204 207 193 173 152 140 142 107 72 75 92 104 119 147 162 160 161 164 164 168 170 172 178 180 180 177 181 182 180 183 185 189 192 194
195 223 228 215 218 216 185 157 192 215 198 170 180 172 161 177 190 114 75 69 70 74 94 121 139 142 148 156 161 169 173 174 181 181 179 175 178 181 183 186 189 192 191 194
188 201 218 217 215 201 98 137 187 213 163 142 161 159 160 139 61 91 92 77 75 81 97 115 124 129 138 153 164 173 175 177 182 179 172 172 176 181 183 184 189 190 192 195
201 197 202 214 215 173 75 176 197 77 94 119 120 115 101 95 95 92 85 81 78 83 93 104 112 114 127 150 168 175 179 177 176 174 170 170 175 181 179 183 188 190 192 193
252 330 219 247 77 68 66 73 72 91 106 105 106 101 108 105 97 85 81 77 72 73 78 88 105 108 113 144 173 177 171 173 172 167 169 171 174 180 178 181 183 185 192 201
137 81 138 122 105 99 88 85 86 91 96 94 97 101 104 98 91 78 71 68 65 65 69 76 94 102 106 118 152 161 165 173 168 165 163 163 164 171 169 175 181 188 196 203
109 169 149 133 121 112 88 83 89 94 94 93 93 93 93 93 87 77 69 65 61 61 57 60 73 83 91 103 119 142 168 169 166 163 163 165 163 156 142 124 78 127 91 29
288 314 220 120 125 121 113 100 101 101 98 98 98 94 87 86 87 79 70 65 61 62 63 66 68 73 80 87 87 91 140 168 164 158 159 160 153 142 139 134 110 62 61 61